Погода в Большой Речке

Россия / Иркутская область     51°57′03″N   104°44′19″E
темп.,
°C
ветер,
м/с
пор.,
м/с
влажн.,
%
обл.,
%
осадки,
мм/ч
давл.,
гПа
погр.,
м
20 сентября, пн
пн2023:00+8юв11925 0.0 101110
02:00+7ююв11925 0.0 100912
05:00+7юв11925 0.0 100816
08:00+10ююв12835 0.0 100769
11:00+18ююв36535 0.0 1003526
14:00+21ююв37440 0.0 1001702
17:00+21ююв26496 0.0 998507
20:00+13вюв22750 0.0 99927
21 сентября, вт
вт2123:00+12зсз81487100 0.8 1002623
02:00+6сз81693100 2.4 1009991
05:00+5зсз51192100 0.3 10131126
08:00+5зсз478698 0.4 1016765
11:00+8сз455810 0.0 10151029
14:00+12ссз22445 0.0 10121351
17:00+11зюз02485 0.0 10111010
20:00+5юв11775 0.0 101310
22 сентября, ср
ср2223:00+4св1177100 0.0 101213
02:00+6св0067100 0.0 101211
05:00+5сз2285100 0.2 101392
08:00+4сз2686100 0.3 1015337
11:00+7ссз3469100 0.0 1015545
14:00+9сз2355100 0.0 10141222
17:00+9сз3559100 0.0 10151107
20:00+3сз51196100 0.0 1020490
23 сентября, чт
чт2323:00+3сз51196100 0.0 1020511
02:00+3сз3795100 0.1 1021547
05:00+2зсз2596100 0.0 1022447
08:00+3сз129099 0.0 1023323
11:00+8юз116346 0.0 1021797
14:00+11ю225131 0.0 10191098
17:00+9ю235489 0.0 1018438
20:00+4юв117694 0.0 102011
24 сентября, пт
пт2423:00+4вюв1171100 0.0 101913
02:00+3вюв1180100 0.0 101717
05:00+3вюв1190100 0.0 101713
08:00+4сз389093 0.0 1021420
11:00+4сз4791100 0.0 1023634
14:00+3сз3595100 0.1 1024602
17:00+2сз2696100 0.1 1025591
20:00+2сз2697100 0.2 1026597